SCP
0 1 1 1 1 1 1 1 1 1 1 2 2 2 2 2 2 1 1 1 1 1 2 2 3 3 3 2 2 3 3 3 2 2 2 2 1 1 1 1 1 2 2
0 1 1 1 1 1 1 1 1 2 2 2 2 2 2 2 2 1 1 1 1 1 2 2 3 3 3 3 2 2 2 2 2 2 2 1 1 1 1 1 1 1 2
0 1 1 1 1 1 1 1 1 2 2 1 2 2 2 2 2 1 1 1 1 1 2 2 3 3 3 3 3 2 2 2 2 2 1 1 1 1 1 1 1 1 1
0 1 1 1 1 1 1 1 2 2 2 1 2 2 2 2 2 2 1 1 1 1 2 2 2 3 3 3 3 2 2 2 2 1 1 0 1 1 1 1 1 1 1
1 1 1 2 2 1 1 1 2 2 2 2 2 2 2 2 2 2 1 1 1 2 2 2 2 3 3 3 3 2 2 1 1 1 0 0 1 1 1 1 1 1 1
1 1 1 2 2 2 2 1 1 2 2 2 2 2 2 2 1 1 1 1 2 2 2 1 1 2 3 3 3 2 2 1 1 1 0 0 1 1 1 1 1 1 1
1 1 1 2 2 2 2 2 2 2 2 2 2 2 2 1 1 1 2 2 2 2 1 1 1 2 3 3 3 2 2 1 1 1 0 0 1 1 1 1 1 1 1
1 1 1 1 2 2 2 2 2 2 2 2 1 1 1 1 1 1 2 2 2 2 1 1 1 2 2 3 2 2 2 1 1 1 0 1 1 1 1 1 1 1 1
1 1 1 1 1 1 2 2 2 2 2 1 1 1 1 1 1 2 2 2 2 2 1 1 1 2 2 2 2 2 2 2 1 1 1 1 1 1 1 1 1 1 1
1 1 1 1 1 1 1 2 2 2 1 1 1 1 1 1 1 2 2 2 2 2 1 1 1 1 2 2 2 2 2 1 1 1 1 1 1 1 1 1 1 1 1
1 1 1 1 0 1 1 1 2 2 1 1 1 1 1 1 1 1 1 2 2 2 2 1 1 1 2 2 2 1 1 1 1 1 0 1 1 1 1 2 2 1 1
1 1 1 1 0 1 1 1 1 1 1 1 1 1 1 1 1 1 1 2 2 2 2 2 1 1 1 1 1 1 1 1 1 1 0 1 1 1 1 2 2 1 1
1 1 2 1 1 1 1 1 0 1 1 1 1 1 1 1 1 1 1 1 2 2 2 2 2 1 1 1 1 1 1 1 1 0 0 1 1 1 1 2 2 1 1
1 1 2 2 1 1 1 1 0 0 1 1 1 1 1 1 1 1 1 1 1 1 2 2 1 1 1 1 1 1 0 0 0 0 0 1 1 1 1 2 2 1 1
1 1 1 2 1 1 1 1 1 1 1 1 1 1 1 1 1 1 1 1 1 1 1 1 1 1 1 1 1 1 0 0 0 0 0 1 1 1 1 2 2 2 2
1 1 2 2 2 2 2 1 1 1 1 1 1 1 1 1 1 1 1 1 1 1 1 1 1 1 1 1 1 1 1 1 0 0 0 0 1 1 1 2 2 3 3
2 2 2 3 3 3 3 2 1 1 1 1 1 1 1 1 1 1 0 1 1 1 1 1 1 1 1 1 1 1 1 1 1 1 0 0 0 1 1 2 3 3 3
2 2 2 3 3 4 4 3 2 1 1 1 1 1 1 1 1 1 0 0 0 0 0 1 1 1 1 1 1 1 1 1 1 1 0 0 0 1 1 1 2 3 3
1 1 2 3 4 4 4 4 4 3 2 1 1 1 1 1 1 1 1 1 1 0 0 0 1 1 0 0 0 0 0 0 0 0 0 0 0 0 0 1 1 2 3
1 1 2 3 4 4 5 5 5 4 5 5 3 1 1 1 1 1 1 1 1 1 1 1 1 1 1 0 0 0 0 0 0 0 0 0 0 0 0 0 1 1 2
1 1 1 3 5 6 5 6 6 5 7 9 4 1 1 1 1 1 1 1 1 1 1 1 1 1 1 1 1 0 0 0 0 0 0 0 0 1 1 0 0 1 1
1 1 1 3 5 7 6 6 6 5 6 6 4 1 1 2 2 2 2 2 2 2 2 2 2 1 1 1 1 1 1 0 0 0 0 0 0 1 1 1 1 1 1
1 1 1 2 5 7 7 5 5 5 5 4 3 2 2 2 2 3 3 3 3 3 3 3 3 2 2 2 1 1 1 1 0 0 0 0 0 0 1 1 1 1 1
2 2 2 2 4 6 6 5 4 4 5 4 3 3 3 3 3 3 3 3 4 4 4 4 3 3 3 3 2 2 2 1 1 0 0 0 0 0 0 1 1 1 1
2 2 2 3 4 5 5 5 4 4 5 4 4 3 3 3 3 3 4 4 4 4 4 4 3 3 4 3 3 3 3 2 1 1 1 0 0 0 0 1 1 1 1
3 3 3 3 3 4 5 4 4 4 5 4 3 3 2 2 3 3 4 4 4 4 3 3 3 4 4 4 4 4 3 2 1 1 1 1 0 0 0 0 1 1 1
Wind_Speed
0 1 6 7 7 7 7 7 7 7 7 7 8 8 9 9 10 10 10 11 12 13 14 14 15 15 15 15 14 14 15 14 14 15 15 14 13 13 13 13 11 7 10
3 2 6 7 7 7 7 7 8 8 8 8 8 9 10 10 10 11 10 11 12 13 13 14 15 15 15 15 14 14 14 14 14 15 14 13 13 12 11 11 11 7 10
4 2 5 8 8 8 7 7 8 8 8 9 9 10 10 10 11 11 10 10 12 13 13 14 15 14 14 14 14 14 14 14 14 14 12 7 8 11 10 10 10 10 10
5 3 5 9 8 8 8 8 8 9 9 10 10 10 10 10 10 10 10 11 12 13 13 14 14 14 13 13 13 13 13 13 13 12 6 5 6 10 10 10 10 9 9
5 3 5 10 9 9 8 8 8 9 9 10 10 10 10 10 10 10 10 11 12 13 13 13 13 12 12 12 12 12 12 12 12 9 5 5 4 9 10 10 9 9 9
5 3 5 10 9 8 8 7 7 8 9 10 10 10 10 10 10 9 9 11 13 13 13 12 12 12 11 11 11 11 11 11 10 6 5 5 4 8 9 9 9 8 8
5 3 5 9 8 8 7 7 7 8 9 9 9 9 10 10 9 9 10 13 13 13 12 12 11 11 10 11 11 11 10 10 7 5 5 4 5 8 9 9 9 8 8
6 4 4 8 8 8 7 7 7 7 8 9 9 9 9 9 9 9 10 13 13 13 12 12 12 10 10 10 10 9 9 9 8 6 5 4 8 9 9 9 8 8 8
6 5 3 3 5 7 7 7 7 8 8 8 8 9 9 9 9 10 11 12 13 12 11 11 11 10 10 10 10 9 9 10 6 4 6 4 8 10 10 9 9 9 8
5 4 3 2 2 2 3 7 7 8 8 8 8 9 9 9 10 11 11 12 12 11 10 10 10 9 8 8 8 8 8 8 5 5 3 5 10 10 10 9 9 9 9
5 3 3 2 2 2 2 4 5 7 7 7 6 8 6 4 4 6 10 11 11 10 9 8 8 8 7 6 6 6 5 3 5 3 3 7 10 10 10 9 9 9 8
4 3 3 3 2 2 3 3 2 3 3 3 3 3 3 3 3 5 8 10 10 9 8 7 7 6 4 2 3 3 2 4 4 3 4 9 10 10 10 9 9 9 8
5 4 3 3 3 3 2 3 2 2 2 3 3 3 3 3 2 3 2 3 4 4 3 3 2 1 1 2 1 2 2 3 3 3 4 10 9 10 10 9 9 8 8
4 4 3 4 3 3 3 2 2 2 2 2 2 3 3 2 2 2 2 2 2 1 2 2 1 1 2 2 2 2 3 2 3 2 4 10 9 10 10 10 9 9 8
5 4 4 4 4 3 3 2 3 2 2 2 2 2 3 2 2 2 2 1 1 2 2 1 1 1 2 2 2 3 3 3 3 3 3 9 10 10 10 11 10 10 10
5 5 4 5 4 4 3 3 2 2 2 3 2 2 3 3 2 2 2 2 1 1 2 2 2 2 2 2 2 3 3 3 3 3 3 5 9 10 10 10 10 10 10
6 5 4 5 4 4 3 3 3 2 3 3 2 2 3 3 3 2 2 2 1 1 2 2 1 1 2 2 2 2 2 3 4 4 3 2 3 7 8 9 9 9 10
6 5 4 5 5 4 3 3 2 3 3 2 2 2 3 3 3 2 2 1 1 2 2 2 1 2 1 1 1 1 1 2 3 4 3 3 3 3 6 9 9 9 10
6 6 5 5 4 3 3 3 3 2 2 2 2 2 2 3 3 2 2 1 1 2 1 1 1 2 1 1 1 1 1 2 2 4 3 4 3 3 3 6 10 10 10
6 6 5 5 4 3 3 3 3 3 2 2 2 2 2 2 3 2 2 1 1 2 1 1 1 1 1 1 1 1 0 1 2 2 4 3 3 4 4 4 4 5 8
6 6 5 5 3 3 2 2 2 1 1 1 1 2 2 2 2 2 2 2 2 1 1 1 1 1 0 1 2 2 2 1 0 1 2 2 3 3 3 3 2 2 3
7 6 6 5 4 3 2 2 2 2 1 1 1 1 1 2 2 2 2 2 1 1 1 1 1 1 0 1 2 1 1 3 2 1 1 2 3 2 3 4 3 3 2
6 6 6 5 5 4 3 2 2 2 2 2 1 1 1 1 2 2 2 2 1 1 1 1 1 2 1 1 1 3 2 2 1 2 1 1 1 2 2 2 3 3 3
6 6 5 5 5 4 4 3 3 3 1 1 1 0 0 1 1 2 2 2 1 1 1 1 1 1 2 0 1 0 2 3 2 1 2 1 0 1 2 2 2 3 3
6 5 5 4 4 4 4 4 3 2 1 1 1 1 1 1 1 1 1 1 1 1 1 1 1 1 1 1 1 0 0 1 2 2 1 2 2 1 1 1 1 2 2
5 5 5 5 4 4 4 4 4 3 2 2 1 1 0 0 0 0 1 1 1 1 1 1 1 1 1 1 1 1 1 1 1 2 2 1 1 2 1 1 1 1 2
Wind_Direction
36 101 99 95 97 97 96 93 90 96 105 111 110 110 111 113 115 120 127 133 137 140 143 147 148 147 145 144 144 145 146 146 146 144 142 142 143 146 145 142 139 137 139
148 130 109 98 97 98 93 89 86 91 99 107 112 111 111 114 116 120 123 132 139 141 142 146 146 145 144 144 143 143 142 143 144 145 143 143 145 148 149 148 144 144 145
127 121 113 100 97 97 93 87 87 89 94 99 110 112 112 115 118 120 121 126 136 140 140 144 144 143 144 143 143 143 143 141 142 142 140 136 141 147 152 151 149 146 151
127 116 110 104 97 97 94 89 91 91 92 97 104 108 111 114 117 118 119 124 131 135 136 140 142 142 143 144 142 141 142 143 144 140 135 132 141 148 150 153 153 151 153
118 114 113 106 102 100 96 92 93 93 93 96 101 105 109 111 112 115 122 127 129 131 134 135 138 139 141 143 142 140 140 141 140 133 128 131 139 150 152 153 154 154 155
121 120 115 110 106 103 98 95 97 95 95 96 100 101 105 107 109 113 123 131 129 130 132 134 136 138 141 143 144 145 142 139 131 128 132 135 143 149 149 151 155 158 156
129 124 119 113 110 105 101 100 102 100 97 98 99 99 103 105 108 110 115 128 130 129 130 130 132 136 140 137 137 140 139 137 128 131 137 139 147 148 149 153 158 159 154
132 125 117 117 112 106 104 104 108 108 106 104 101 99 102 107 108 110 115 125 129 130 129 128 128 125 121 121 125 129 131 133 129 133 133 142 151 152 151 152 154 155 154
125 121 107 106 108 108 105 105 114 115 112 110 107 103 106 105 103 107 117 124 127 127 129 128 128 125 124 123 126 131 133 134 126 130 144 148 155 154 151 152 151 152 153
118 124 128 110 88 96 104 111 123 126 120 117 112 110 106 104 98 102 114 120 126 127 128 130 129 128 126 127 130 132 137 137 131 136 142 158 158 156 157 156 156 156 155
125 123 129 125 109 106 103 111 116 125 123 122 115 113 106 86 88 95 111 121 127 132 135 137 135 133 133 131 133 132 129 126 132 139 150 162 162 161 161 160 161 161 159
144 149 145 145 137 118 110 92 88 102 101 93 86 94 85 84 96 109 119 127 131 136 138 141 143 140 133 125 133 128 117 132 139 149 160 166 168 164 163 161 161 164 164
152 146 148 146 131 117 95 97 88 91 90 89 92 96 93 86 91 90 91 103 111 122 119 126 125 112 118 129 133 129 136 136 145 159 168 172 172 168 166 167 168 170 171
128 132 126 137 127 122 113 105 104 106 106 110 113 111 103 97 101 103 96 96 90 95 106 105 119 134 147 153 143 139 141 145 147 155 172 176 179 176 175 177 179 180 179
112 114 113 115 114 110 109 104 100 105 114 118 107 109 112 113 115 115 114 109 113 119 126 135 143 144 149 153 152 143 142 145 150 158 170 177 181 182 184 186 185 187 188
116 114 116 113 115 110 107 103 98 98 98 102 101 108 113 112 117 118 114 113 122 140 138 139 150 144 132 124 130 136 145 151 156 161 169 179 183 186 189 190 191 195 197
132 122 122 120 110 108 108 110 98 97 103 99 96 98 105 109 108 109 109 99 109 116 114 111 99 91 102 109 120 141 149 149 157 163 167 175 188 195 196 196 197 201 205
133 128 130 125 116 110 107 99 93 90 102 104 99 103 109 110 113 106 95 90 78 85 93 103 98 87 85 108 123 159 155 156 165 170 172 180 190 202 209 208 208 210 213
139 132 124 120 124 121 107 97 88 87 97 97 94 99 103 98 103 106 103 100 92 89 97 114 102 119 123 129 143 159 166 171 174 176 184 191 197 210 212 218 219 221 222
133 128 126 125 125 115 97 80 65 65 69 73 88 104 107 100 101 105 104 92 93 89 75 100 121 115 151 168 139 95 242 215 186 182 191 190 200 210 214 224 227 231 229
133 129 128 126 129 119 106 100 92 86 77 70 79 99 103 103 110 106 102 86 94 111 147 131 113 101 88 103 80 33 355 343 243 193 187 178 197 206 202 216 222 229 234
149 146 142 144 142 140 138 139 135 132 128 140 103 86 115 122 130 120 116 114 115 107 75 73 99 102 172 137 123 100 10 351 343 265 197 196 205 206 207 212 214 218 222
154 160 156 156 148 147 137 110 86 62 40 39 40 34 29 101 106 106 117 121 126 131 133 135 127 135 182 279 157 148 150 214 301 330 300 220 198 198 212 218 214 215 205
166 158 148 150 147 149 138 130 131 132 143 196 186 160 341 72 109 128 131 136 139 137 149 206 161 148 143 237 293 192 177 168 156 306 331 323 271 213 218 225 223 208 197
155 147 140 137 137 140 138 142 138 133 151 146 103 92 53 34 84 131 130 133 134 144 170 186 141 120 145 173 193 204 113 107 143 155 260 313 339 326 271 232 203 197 188
140 140 142 140 143 146 144 143 144 143 141 125 125 129 45 15 13 241 134 137 157 178 185 183 166 141 156 158 170 155 156 162 174 159 191 242 287 301 305 278 217 209 203